Flag for Germany Weather past 2 weeks in Vechta, Lower Saxony, Germany

48 °F


Feels Like: 48 °F
Forecast: 49 / 66 °F
Wind: No wind

Location: Bremen Airport

Current Time: Oct 4, 2015 at 11:25:53 PM

Latest Report: Oct 4, 2015 at 10:50 PM

Visibility: 1 mi

Pressure: 30.01 "Hg

Humidity: 100%

Dew point: 48 °F

Location of VechtaLocation

Historic Weather in Vechta — Graph


Vechta temperature yesterday

Maximum temperature yesterday: 64 °F (at 2:20 PM)
Minimum temperature yesterday: 41 °F (at 5:50 AM)
Average temperature yesterday: 53 °F

Past Weeks' High & Low Weather Summary

High64 °F (Oct 3, 2:20 PM)100% (Sep 20, 5:20 AM)30.72 "Hg (Sep 20, 5:20 AM)
Low37 °F (Oct 2, 2:50 AM)48% (Oct 1, 1:20 PM)29.53 "Hg (Sep 22, 3:20 PM)
Average53 °F86%30.21 "Hg
* Reported Sep 19 10:20 PM — Oct 4 10:20 PM, Vechta, Weather by CustomWeather, © 2015

Note: Actual official high and low records may vary slightly from our data, if they occured in-between our weather recording intervals... More about our weather records


Vechta weather history for previous 24 hours

Time TempWeatherWind HumidityBarometerVisibility
10:20 PM
Sun, Oct 4
48 °FFog.No wind100%30.01 "Hg3 mi
9:50 PM48 °FFog.No wind100%30.01 "Hg1 mi
9:20 PM48 °FFog.No wind100%30.01 "Hg3 mi
8:50 PM52 °FFog.No wind94%30.01 "Hg4 mi
8:20 PM52 °FFog.No wind94%29.98 "Hg4 mi
7:50 PM54 °FFog.2 mph94%29.98 "Hg4 mi
7:20 PM55 °FFog.2 mph88%29.98 "Hg4 mi
6:50 PM55 °FClear.2 mph88%29.98 "Hg4 mi
6:20 PM59 °FSunny.2 mph77%29.98 "Hg10 mi
5:50 PM59 °FSunny.5 mph77%30.01 "Hg10 mi
5:20 PM61 °FSunny.5 mph72%29.98 "Hg10 mi
4:50 PM63 °FSunny.9 mph68%29.98 "Hg10 mi
4:20 PM63 °FPassing clouds.8 mph68%29.98 "HgN/A
3:50 PM63 °FPassing clouds.6 mph68%29.98 "HgN/A
3:20 PM61 °FPartly sunny.6 mph77%29.98 "HgN/A
2:50 PM61 °FPartly sunny.6 mph72%29.98 "HgN/A
2:20 PM63 °FScattered clouds.8 mph73%30.01 "Hg6 mi
1:50 PM61 °FScattered clouds.9 mph77%30.01 "Hg5 mi
1:20 PM59 °FScattered clouds.9 mph82%30.01 "Hg5 mi
12:50 PM59 °FScattered clouds.12 mph77%30.01 "Hg5 mi
12:20 PM61 °FScattered clouds.9 mph77%29.98 "Hg4 mi
11:50 AM59 °FFog.9 mph82%29.98 "Hg3 mi
11:20 AM57 °FFog.9 mph88%30.01 "Hg2 mi
10:50 AM55 °FFog.6 mph94%29.98 "Hg2 mi
10:20 AM54 °FFog.5 mph94%29.98 "Hg2 mi
9:50 AM54 °FFog.5 mph94%29.98 "Hg2 mi
9:20 AM52 °FFog.5 mph94%29.98 "Hg2 mi
8:50 AM48 °FFog.3 mph100%29.98 "Hg1 mi
8:20 AM48 °FCool.1 mph100%29.95 "Hg1 mi
7:50 AM48 °FCool.2 mph100%29.95 "Hg1 mi
7:20 AM46 °FCool.3 mph100%29.95 "Hg2 mi
6:20 AM46 °FFog.No wind100%29.95 "Hg1 mi
5:50 AM46 °FFog.2 mph100%29.95 "Hg1 mi
5:20 AM46 °FFog.No wind100%29.95 "Hg1 mi
4:50 AM46 °FFog.2 mph100%29.95 "Hg1 mi
4:20 AM48 °FFog.No wind100%29.92 "HgN/A
3:50 AM46 °FFog.3 mph100%29.95 "Hg5 mi
3:20 AM48 °FCool.1 mph100%29.92 "Hg0 mi
2:50 AM50 °FCool.2 mph100%29.92 "Hg1 mi
2:20 AM50 °FCool.No wind100%29.92 "Hg2 mi
1:50 AM50 °FCool.No wind100%29.92 "Hg5 mi
1:20 AM52 °FClear.No wind94%29.92 "Hg10 mi
12:50 AM50 °FCool.No wind100%29.92 "Hg4 mi
11:20 PM
Sat, Oct 3
50 °FFog.No wind100%29.92 "HgN/A
Weather by CustomWeather, © 2015

See weather overviewHow to use our weather pages